Location: Igon
(43.1667°N, 0.2333°W)
Time: 22:11:36
(UTC+00:00)

OBJECT A - Visible Passes

Search period start: 24 June 2021 00:00
Search period end: 04 July 2021 00:00
Orbit: 492 x 506 km, 97.4° (Epoch: 23 June)

Date Brightness Start Highest point End Pass type
(mag) Time Alt. Az. Time Alt. Az. Time Alt. Az.
24 Jun ? 01:40:08 22° SE 01:42:04 39° ENE 01:45:34 10° N visible
24 Jun ? 03:14:48 12° WSW 03:15:58 14° W 03:18:00 10° WNW visible
25 Jun ? 01:19:58 14° ESE 01:22:12 23° ENE 01:25:12 10° NNE visible
25 Jun ? 02:54:37 20° SW 02:55:50 24° W 02:58:54 10° NW visible
26 Jun ? 01:00:18 10° E 01:02:23 15° ENE 01:04:28 10° NNE visible
26 Jun ? 02:34:27 29° SW 02:35:45 41° W 02:39:18 10° NNW visible
27 Jun ? 02:14:16 35° S 02:15:44 76° WSW 02:19:28 10° NNW visible
28 Jun ? 01:54:05 29° SE 01:55:45 59° ENE 01:59:26 10° N visible
29 Jun ? 01:33:55 20° ESE 01:35:50 33° ENE 01:39:13 10° N visible
29 Jun ? 03:08:34 15° WSW 03:09:40 17° W 03:12:06 10° NW visible
30 Jun ? 01:13:44 13° ESE 01:15:58 20° ENE 01:18:45 10° NNE visible
30 Jun ? 02:48:23 23° SW 02:49:32 28° W 02:52:47 10° NW visible
01 Jul ? 00:54:32 10° E 00:56:10 13° ENE 00:57:47 10° NE visible
01 Jul ? 02:28:12 34° SSW 02:29:27 49° W 02:33:05 10° NNW visible
02 Jul ? 02:08:01 37° SSE 02:09:26 89° ENE 02:13:10 10° NNW visible
03 Jul ? 01:47:50 28° SE 01:49:27 49° ENE 01:53:04 10° N visible
03 Jul ? 03:22:30 11° WSW 03:23:28 11° W 03:24:45 10° WNW visible
